Weather History for Cape Girardeau, MO

Change the Weather History Date:

Tuesday, February 26, 2013

  Actual Average Record
Temperature  
Mean Temperature 44 °F 41 °F  
Max Temperature 49 °F 52 °F 74 °F (1996)
Min Temperature 38 °F 31 °F 12 °F (1963)
Degree Days  
Heating Degree Days 21 24  
Month to date heating degree days 683 713  
Since 1 July heating degree days 3182 3451  
Cooling Degree Days 0 0  
Month to date cooling degree days 0 0  
Year to date cooling degree days 0 0  
Moisture  
Dew Point 39 °F    
Average Humidity 85    
Maximum Humidity 93    
Minimum Humidity 77    
Precipitation  
Precipitation 0.21 in 0.12 in 1.66 in (2000)
Month to date precipitation 3.04 3.17  
Year to date precipitation 6.62 6.64  
Sea Level Pressure  
Sea Level Pressure 29.45 in    
Wind  
Wind Speed 15 mph (SW)    
Max Wind Speed 25 mph    
Max Gust Speed 32 mph    
Visibility 9 miles    
Events Rain , Thunderstorm    
T = Trace of Precipitation, MM = Missing Value Source: NWS Daily Summary

Daily Weather History Graph

Daily Weather History Graph

Search for Another Location

Airport:

Trip Planner

Search our weather history database for the weather conditions in past years. The results will help you decide how hot, cold, wet, or windy it might be!

Date:

Astronomy

Feb. 26, 2013 Rise Set
Actual Time 6:33 AM CST 5:49 PM CST
Civil Twilight 6:06 AM CST 6:15 PM CST
Nautical Twilight 5:36 AM CST 6:46 PM CST
Astronomical Twilight 5:06 AM CST 7:16 PM CST
Moon 7:03 PM CST (2/26) 6:37 AM CST (2/26)
Length of Visible Light 12h 09m
Length of Day
11h 16m
Full, 99% of the Moon is Illuminated
Feb 26
Full
Mar 4
Last Quarter
Mar 11
New
Mar 19
First Quarter
Mar 27
Full

Hourly Weather History & Observations

Time (CST) Temp. Windchill Dew Point Humidity Pressure Visibility Wind Dir Wind Speed Gust Speed Precip Events Conditions
12:32 AM 42.8 °F 40.1 °F 37.4 °F 81% 29.48 in 8.0 mi WNW 4.6 mph 23.0 mph 0.01 in Rain , Thunderstorm Rain
12:43 AM 41.0 °F 35.2 °F 37.4 °F 87% 29.46 in 1.8 mi North 9.2 mph - 0.13 in Rain , Thunderstorm Heavy Rain
12:51 AM 41.0 °F 34.3 °F 37.4 °F 87% 29.45 in 3.0 mi NE 11.5 mph - 0.16 in Rain Rain
12:53 AM 41.0 °F 33.5 °F 37.9 °F 89% 29.45 in 3.0 mi NE 13.8 mph - 0.16 in Rain Rain
1:53 AM 42.1 °F 36.1 °F 39.0 °F 89% 29.38 in 5.0 mi East 10.4 mph 24.2 mph 0.03 in Rain Light Rain
2:07 AM 42.8 °F 37.5 °F 39.2 °F 87% 29.39 in 4.0 mi East 9.2 mph - 0.00 in Rain Light Rain
2:53 AM 44.1 °F 37.7 °F 41.0 °F 89% 29.35 in 10.0 mi East 12.7 mph - 0.01 in Rain Light Rain
3:39 AM 44.6 °F 40.2 °F 41.0 °F 87% 29.33 in 10.0 mi East 8.1 mph - 0.00 in   Overcast
3:53 AM 44.1 °F 38.6 °F 42.1 °F 93% 29.33 in 10.0 mi East 10.4 mph - 0.00 in   Overcast
4:53 AM 46.0 °F 41.0 °F 44.1 °F 93% 29.31 in 10.0 mi ESE 10.4 mph - N/A   Overcast
5:32 AM 46.4 °F 41.5 °F 44.6 °F 93% 29.31 in 10.0 mi SE 10.4 mph - N/A   Overcast
5:45 AM 48.2 °F - 46.4 °F 93% 29.32 in 10.0 mi South 16.1 mph 23.0 mph N/A   Overcast
5:53 AM 48.9 °F - 45.0 °F 86% 29.33 in 10.0 mi South 18.4 mph 31.1 mph N/A   Overcast
6:53 AM 46.9 °F - 42.1 °F 83% 29.34 in 10.0 mi South 11.5 mph 21.9 mph N/A   Overcast
7:11 AM 46.4 °F 40.4 °F 42.8 °F 87% 29.34 in 10.0 mi South 13.8 mph 19.6 mph N/A   Overcast
7:19 AM 46.4 °F 40.7 °F 42.8 °F 87% 29.34 in 10.0 mi South 12.7 mph - N/A   Overcast
7:53 AM 46.0 °F 40.2 °F 42.1 °F 86% 29.36 in 10.0 mi SSW 12.7 mph - N/A   Overcast
8:53 AM 46.9 °F - 41.0 °F 80% 29.37 in 10.0 mi SW 15.0 mph - N/A   Overcast
9:53 AM 46.9 °F - 42.1 °F 83% 29.38 in 10.0 mi SW 15.0 mph - N/A   Overcast
10:06 AM 48.2 °F - 41.0 °F 76% 29.38 in 10.0 mi SW 12.7 mph - 0.00 in   Overcast
10:37 AM 48.2 °F - 42.8 °F 82% 29.38 in 10.0 mi SSW 16.1 mph 21.9 mph 0.00 in   Overcast
10:53 AM 48.0 °F - 41.0 °F 77% 29.39 in 10.0 mi SSW 16.1 mph 27.6 mph 0.00 in   Overcast
11:53 AM 46.9 °F - 41.0 °F 80% 29.39 in 10.0 mi SSW 21.9 mph 28.8 mph 0.00 in   Overcast
12:49 PM 46.4 °F 38.5 °F 39.2 °F 76% 29.39 in 10.0 mi SSW 21.9 mph 29.9 mph N/A   Overcast
12:53 PM 46.0 °F 37.8 °F 39.9 °F 79% 29.40 in 4.0 mi SW 23.0 mph 31.1 mph 0.01 in Rain Light Rain
1:53 PM 44.6 °F 36.6 °F 39.2 °F 81% 29.40 in 10.0 mi SSW 19.6 mph - N/A   Overcast
2:53 PM 43.0 °F 35.1 °F 37.9 °F 82% 29.44 in 10.0 mi SW 17.3 mph 24.2 mph 0.00 in Rain Light Rain
3:38 PM 42.8 °F 34.8 °F 37.4 °F 81% 29.46 in 10.0 mi WSW 17.3 mph - 0.01 in   Overcast
3:53 PM 42.1 °F 36.1 °F 37.0 °F 82% 29.47 in 10.0 mi WSW 10.4 mph - 0.01 in   Overcast
4:19 PM 41.0 °F 31.9 °F 37.4 °F 87% 29.48 in 6.0 mi SW 19.6 mph 26.5 mph 0.00 in Rain Light Rain
4:53 PM 41.0 °F 34.3 °F 37.0 °F 86% 29.49 in 10.0 mi SW 11.5 mph - 0.00 in   Overcast
5:53 PM 41.0 °F 33.5 °F 36.0 °F 82% 29.52 in 10.0 mi WSW 13.8 mph - N/A   Overcast
6:32 PM 39.2 °F 30.8 °F 35.6 °F 87% 29.55 in 10.0 mi WSW 15.0 mph - N/A   Overcast
6:43 PM 39.2 °F 30.5 °F 35.6 °F 87% 29.56 in 10.0 mi WSW 16.1 mph - N/A   Overcast
6:53 PM 39.9 °F 32.5 °F 35.1 °F 83% 29.57 in 10.0 mi West 12.7 mph - N/A   Overcast
7:53 PM 39.9 °F 31.8 °F 34.0 °F 79% 29.60 in 10.0 mi West 15.0 mph - N/A   Overcast
8:53 PM 39.0 °F 30.3 °F 34.0 °F 82% 29.64 in 10.0 mi West 16.1 mph - N/A   Overcast
9:40 PM 39.2 °F 31.6 °F 33.8 °F 81% 29.66 in 10.0 mi West 12.7 mph - N/A   Overcast
9:53 PM 39.0 °F 31.0 °F 34.0 °F 82% 29.68 in 10.0 mi West 13.8 mph - N/A   Overcast
10:53 PM 37.9 °F 29.6 °F 33.1 °F 83% 29.69 in 10.0 mi West 13.8 mph - N/A   Overcast
11:53 PM 37.9 °F 29.6 °F 33.1 °F 83% 29.70 in 10.0 mi West 13.8 mph - N/A   Overcast